When you browse on this site, cookies collect data to enhance your experience and personalize the content and advertising you see.
Visit our Privacy Policy to learn more. By continuing to use the site, you agree to this use of cookies and data.
  • In Spain
  • List of Countries
  • For 7 days
  • Water Temperature
  • Satellite Maps
  • Weather Map
  • Weather Widgets
  • user-avatar
    Login

    Hourly Weather Mumbai

    Today, 17 July, Wednesday

    Time Temperature Precipitation Wind Pressure Humidity
    00:00 +30°C° 0.5 mm 4 mps 755 mmHg 82%
    01:00 +30°C° 0.5 mm 4 mps 754 mmHg 81%
    02:00 +30°C° 0.5 mm 5 mps 754 mmHg 81%
    03:00 +30°C° 0.5 mm 5 mps 754 mmHg 82%
    04:00 +29°C° 0.5 mm 5 mps 754 mmHg 83%
    05:00 +29°C° 0 mm 3 mps 754 mmHg 84%
    06:00 +30°C° 0.3 mm 3 mps 754 mmHg 81%
    07:00 +30°C° 0.3 mm 3 mps 754 mmHg 79%
    08:00 +31°C° 0.3 mm 3 mps 754 mmHg 76%
    09:00 +32°C° 0.3 mm 4 mps 754 mmHg 74%
    10:00 +33°C° 0.3 mm 5 mps 755 mmHg 72%
    11:00 +33°C° 0 mm 4 mps 755 mmHg 70%
    12:00 +33°C° 0.1 mm 4 mps 754 mmHg 69%
    13:00 +33°C° 0.1 mm 4 mps 754 mmHg 69%
    14:00 +33°C° 0.1 mm 5 mps 753 mmHg 68%
    15:00 +33°C° 0 mm 5 mps 753 mmHg 69%
    16:00 +33°C° 0 mm 5 mps 753 mmHg 70%
    17:00 +33°C° 0 mm 5 mps 753 mmHg 71%
    18:00 +32°C° 0.1 mm 4 mps 753 mmHg 74%
    19:00 +32°C° 0.1 mm 4 mps 754 mmHg 77%
    20:00 +30°C° 0.1 mm 4 mps 754 mmHg 80%
    21:00 +30°C° 0.2 mm 4 mps 754 mmHg 80%
    22:00 +30°C° 0.2 mm 4 mps 754 mmHg 81%
    23:00 +30°C° 0.2 mm 4 mps 754 mmHg 82%

    Tomorrow, 18 July, Thursday

    Time Temperature Precipitation Wind Pressure Humidity
    00:00 +29°C° 0.3 mm 4 mps 754 mmHg 83%
    01:00 +29°C° 0.3 mm 4 mps 753 mmHg 83%
    02:00 +29°C° 0.3 mm 4 mps 753 mmHg 84%
    03:00 +29°C° 0.2 mm 4 mps 753 mmHg 84%
    04:00 +29°C° 0.2 mm 4 mps 753 mmHg 85%
    05:00 +29°C° 0.2 mm 3 mps 753 mmHg 85%
    06:00 +29°C° 0.2 mm 3 mps 753 mmHg 83%
    07:00 +30°C° 0.2 mm 3 mps 753 mmHg 80%
    08:00 +30°C° 0.2 mm 2 mps 754 mmHg 78%
    09:00 +31°C° 0.2 mm 3 mps 754 mmHg 75%
    10:00 +31°C° 0.2 mm 3 mps 754 mmHg 72%
    11:00 +33°C° 0.2 mm 4 mps 754 mmHg 70%
    12:00 +33°C° 0.1 mm 4 mps 753 mmHg 69%
    13:00 +33°C° 0.1 mm 4 mps 753 mmHg 69%
    14:00 +33°C° 0.1 mm 4 mps 752 mmHg 69%
    15:00 +33°C° 0 mm 4 mps 752 mmHg 70%
    16:00 +33°C° 0 mm 4 mps 752 mmHg 71%
    17:00 +32°C° 0 mm 4 mps 752 mmHg 72%
    18:00 +32°C° 0.1 mm 4 mps 752 mmHg 75%
    19:00 +30°C° 0.1 mm 3 mps 752 mmHg 78%
    20:00 +30°C° 0.1 mm 3 mps 753 mmHg 81%
    21:00 +30°C° 0.2 mm 3 mps 753 mmHg 81%
    22:00 +30°C° 0.2 mm 3 mps 753 mmHg 81%
    23:00 +30°C° 0.2 mm 3 mps 753 mmHg 81%

    Day after tomorrow, 19 July, Friday

    Time Temperature Precipitation Wind Pressure Humidity
    00:00 +30°C° 0.2 mm 3 mps 753 mmHg 81%
    01:00 +29°C° 0.2 mm 3 mps 752 mmHg 82%
    02:00 +29°C° 0.2 mm 3 mps 752 mmHg 82%
    03:00 +29°C° 0.2 mm 3 mps 752 mmHg 83%
    04:00 +29°C° 0.2 mm 3 mps 752 mmHg 83%
    05:00 +29°C° 0.2 mm 2 mps 752 mmHg 83%
    06:00 +29°C° 0.1 mm 2 mps 752 mmHg 82%
    07:00 +29°C° 0.1 mm 2 mps 752 mmHg 80%
    08:00 +30°C° 0.1 mm 2 mps 753 mmHg 78%
    09:00 +30°C° 0.1 mm 2 mps 753 mmHg 75%
    10:00 +31°C° 0.1 mm 2 mps 753 mmHg 73%
    11:00 +31°C° 0.1 mm 3 mps 753 mmHg 70%
    12:00 +33°C° 0 mm 3 mps 752 mmHg 69%
    13:00 +33°C° 0 mm 3 mps 752 mmHg 68%
    14:00 +33°C° 0 mm 4 mps 751 mmHg 67%
    15:00 +33°C° 0 mm 4 mps 751 mmHg 69%
    16:00 +32°C° 0 mm 4 mps 751 mmHg 71%
    17:00 +32°C° 0 mm 4 mps 751 mmHg 74%
    18:00 +31°C° 0 mm 3 mps 751 mmHg 76%
    19:00 +31°C° 0 mm 3 mps 751 mmHg 78%
    20:00 +30°C° 0 mm 3 mps 752 mmHg 80%
    21:00 +30°C° 0 mm 3 mps 752 mmHg 81%
    22:00 +30°C° 0 mm 2 mps 752 mmHg 82%
    23:00 +30°C° 0 mm 2 mps 753 mmHg 83%

    20 July, Saturday

    Time Temperature Precipitation Wind Pressure Humidity
    00:00 +29°C° 0.1 mm 2 mps 752 mmHg 84%
    01:00 +29°C° 0.1 mm 2 mps 752 mmHg 84%
    02:00 +29°C° 0.1 mm 2 mps 752 mmHg 85%
    03:00 +29°C° 0 mm 2 mps 752 mmHg 85%
    04:00 +29°C° 0 mm 2 mps 752 mmHg 85%
    05:00 +29°C° 0 mm 2 mps 752 mmHg 85%
    06:00 +29°C° 0 mm 1 mps 752 mmHg 83%
    07:00 +29°C° 0 mm 1 mps 752 mmHg 82%
    08:00 +30°C° 0 mm 1 mps 753 mmHg 80%
    09:00 +30°C° 0 mm 1 mps 753 mmHg 80%
    10:00 +30°C° 0 mm 2 mps 753 mmHg 81%
    11:00 +30°C° 0 mm 2 mps 753 mmHg 81%
    12:00 +30°C° 0.2 mm 2 mps 753 mmHg 81%
    13:00 +29°C° 0.2 mm 2 mps 753 mmHg 81%
    14:00 +29°C° 0.2 mm 2 mps 752 mmHg 81%
    15:00 +29°C° 0.4 mm 1 mps 752 mmHg 80%
    16:00 +29°C° 0.4 mm 1 mps 752 mmHg 79%
    17:00 +29°C° 0.4 mm 1 mps 751 mmHg 78%
    18:00 +27°C° 0 mm 0 mps 752 mmHg 79%
    19:00 +27°C° 0 mm 0 mps 752 mmHg 80%
    20:00 +27°C° 0 mm 0 mps 752 mmHg 80%
    21:00 +27°C° 0.1 mm 0 mps 752 mmHg 81%
    22:00 +28°C° 0.1 mm 1 mps 752 mmHg 82%
    23:00 +28°C° 0.1 mm 1 mps 752 mmHg 83%

    21 July, Sunday

    Time Temperature Precipitation Wind Pressure Humidity
    00:00 +28°C° 1.1 mm 1 mps 752 mmHg 85%
    01:00 +28°C° 1.1 mm 2 mps 751 mmHg 87%
    02:00 +27°C° 1.1 mm 2 mps 751 mmHg 89%
    03:00 +27°C° 2 mm 2 mps 751 mmHg 90%
    04:00 +27°C° 2 mm 2 mps 751 mmHg 91%
    05:00 +27°C° 2 mm 2 mps 751 mmHg 92%
    06:00 +27°C° 0.4 mm 2 mps 751 mmHg 91%
    07:00 +27°C° 0.4 mm 2 mps 752 mmHg 90%
    08:00 +27°C° 0.4 mm 2 mps 752 mmHg 89%
    09:00 +27°C° 0.1 mm 2 mps 752 mmHg 87%
    10:00 +28°C° 0.1 mm 2 mps 752 mmHg 86%
    11:00 +28°C° 0.1 mm 2 mps 752 mmHg 84%
    12:00 +29°C° 0 mm 1 mps 752 mmHg 80%
    13:00 +29°C° 0 mm 1 mps 751 mmHg 76%
    14:00 +30°C° 0 mm 1 mps 751 mmHg 73%
    15:00 +30°C° 0 mm 1 mps 750 mmHg 73%
    16:00 +30°C° 0 mm 2 mps 750 mmHg 73%
    17:00 +30°C° 0 mm 2 mps 750 mmHg 73%
    18:00 +30°C° 0 mm 2 mps 750 mmHg 75%
    19:00 +30°C° 0 mm 2 mps 751 mmHg 78%
    20:00 +29°C° 0 mm 2 mps 751 mmHg 80%
    21:00 +29°C° 0 mm 2 mps 751 mmHg 81%
    22:00 +29°C° 0 mm 2 mps 751 mmHg 82%
    23:00 +29°C° 0 mm 1 mps 752 mmHg 83%

    22 July, Monday

    Time Temperature Precipitation Wind Pressure Humidity
    00:00 +29°C° 0 mm 2 mps 751 mmHg 83%
    01:00 +29°C° 0 mm 2 mps 751 mmHg 84%
    02:00 +28°C° 0 mm 2 mps 750 mmHg 84%
    03:00 +28°C° 0 mm 2 mps 750 mmHg 84%
    04:00 +28°C° 0 mm 2 mps 750 mmHg 84%
    05:00 +28°C° 0 mm 2 mps 750 mmHg 85%
    06:00 +29°C° 0.1 mm 2 mps 751 mmHg 83%
    07:00 +29°C° 0.1 mm 2 mps 751 mmHg 81%
    08:00 +29°C° 0.1 mm 2 mps 751 mmHg 79%
    09:00 +30°C° 0 mm 2 mps 752 mmHg 77%
    10:00 +30°C° 0 mm 2 mps 752 mmHg 75%
    11:00 +31°C° 0 mm 2 mps 752 mmHg 73%
    12:00 +31°C° 0 mm 3 mps 751 mmHg 72%
    13:00 +33°C° 0 mm 3 mps 751 mmHg 71%
    14:00 +33°C° 0 mm 4 mps 750 mmHg 70%
    15:00 +33°C° 0 mm 4 mps 750 mmHg 72%
    16:00 +32°C° 0 mm 4 mps 749 mmHg 73%
    17:00 +32°C° 0 mm 4 mps 749 mmHg 75%
    18:00 +32°C° 0 mm 4 mps 750 mmHg 77%
    19:00 +30°C° 0 mm 4 mps 750 mmHg 80%
    20:00 +30°C° 0 mm 4 mps 750 mmHg 82%
    21:00 +30°C° 0.4 mm 4 mps 751 mmHg 83%
    22:00 +30°C° 0.4 mm 4 mps 751 mmHg 84%
    23:00 +30°C° 0.4 mm 4 mps 751 mmHg 85%
    Show more